Regional Weather Roundup
Issued by NWS

Home | Current Version | Previous Version | Graphics & Text | Print | Product List | Glossary On
Versions: 1 2 3 4 5 6 7 8 9 10 11 12 13 14 15 16 17 18 19 20 21 22 23 24 25 26 27 28 29 30 31 32 33 34 35 36 37 38 39 40 41 42 43 44 45 46 47 48 49 50
000
ASUS45 KBOU 311207
RWRCO

WEATHER ROUNDUP FOR COLORADO
NATIONAL WEATHER SERVICE DENVER/BOULDER CO
600 AM MDT THU JUL 31 2014

NOTE: "FAIR" INDICATES FEW OR NO CLOUDS BELOW 12000 FEET WITH NO
SIGNIFICANT WEATHER AND/OR OBSTRUCTIONS TO VISIBILITY.

COZ001>005-013-030-031-311300-
...NORTHWEST COLORADO...

CITY           SKY/WX    TMP DP  RH WIND       PRES   REMARKS
CRAIG          CLOUDY    51  51 100 CALM      30.30S
HAYDEN         CLOUDY    55  50  82 SE3       30.32S
MEEKER         CLOUDY    56  53  90 CALM      30.31S
MOUNT WERNER   NOT AVBL
STEAMBOAT SPGS MOCLDY    50  49  97 CALM      30.34R
WALDEN         CLOUDY    50  45  81 CALM      30.41S
$$

COZ006>008-011-311300-
...WEST CENTRAL VALLEYS...

CITY           SKY/WX    TMP DP  RH WIND       PRES   REMARKS
GRAND JUNCTION CLEAR     59  56  89 CALM      30.18S
MONTROSE       CLEAR     58  52  80 S8        30.26S
EAGLE          PTCLDY    54  54 100 E3        30.34S
RIFLE          CLEAR     55  53  93 E6        30.25R
DELTA          CLEAR     61  54  76 CALM      30.21F
NUCLA          CLEAR     57  52  82 SE6       30.28R
$$

COZ017>023-064>068-311300-
...SOUTHWEST COLORADO...

CITY           SKY/WX    TMP DP  RH WIND       PRES   REMARKS
DURANGO        PTCLDY    54  48  80 E6        30.30R
CORTEZ         CLEAR     54  49  83 E3        30.22S
PAGOSA SPRINGS CLOUDY    56  47  72 CALM      30.38S
TELLURIDE      CLEAR     52  48  87 SE5       30.45S
WOLF CREEK PAS NOT AVBL
$$

COZ009-010-012-014-032>034-037-058>063-311300-
...CENTRAL COLORADO...

CITY           SKY/WX    TMP DP  RH WIND       PRES   REMARKS
ASPEN          CLOUDY    53  49  86 S5        30.37S
BUENA VISTA    CLOUDY    52  50  95 SE5       30.41F
COPPER MTN     CLOUDY    46  41  81 W7        30.62S
BERTHOUD PASS  CLOUDY    37  37 100 NW6       30.66S
COTTONWOOD PAS FOG       50  46  87 CALM      30.50S VSB 1/4
GUNNISON       PTCLDY    52  45  76 NE5       30.39F
KREMMLING      CLOUDY    54  50  87 CALM      30.39R
LEADVILLE      CLOUDY    46  45  96 SW3       30.49S
MONARCH PASS   FOG       45  43  93 SW13      30.72F VSB<1/4
SALIDA         NOT AVBL
SUNLIGHT       CLEAR     50  46  87 CALM      30.55S
WILKERSON PASS RAIN      41  41 100 SW6       30.60S VSB 3/4
$$

COZ069>075-311300-
...SAN LUIS VALLEY/SANGRE DE CRISTO MOUNTAINS...

CITY           SKY/WX    TMP DP  RH WIND       PRES   REMARKS
ALAMOSA        CLOUDY    55  54  96 S6        30.37S
LA VETA PASS   CLOUDY    45  45 100 SW3       30.52S FOG
SAGUACHE       CLOUDY    54  52  94 CALM      30.40S
$$

COZ035-036-038>040-311300-
...NORTHERN COLORADO FRONT RANGE...

CITY           SKY/WX    TMP DP  RH WIND       PRES   REMARKS
DENVER INTL AP CLOUDY    58  56  93 CALM      30.29R
DMNS CITY PARK   N/A     58  57  97 NW2       30.30R
AURORA         MOCLDY    56  56  99 CALM      30.31R
FRONT RANGE AP CLOUDY    59  57  94 SE3       30.30R
ERIE MUNI ARPT CLOUDY    58  57  97 CALM      30.29R
BOULDER MUN AP CLOUDY    57  55  94 CALM      30.30R
CENTENNIAL     MOCLDY    56  54  93 S5        30.30S
BROOMFIELD     CLOUDY    57  55  94 NW7       30.32R
FORT COLLINS   CLOUDY    59  57  94 CALM      30.29S
LONGMONT       CLOUDY    60  58  94 CALM      30.30R
$$

COZ041-046-047-076>085-087-088-311300-
...PIKES PEAK/PALMER DIVIDE AND SOUTHERN FOOTHILLS...

CITY           SKY/WX    TMP DP  RH WIND       PRES   REMARKS
COLO. SPRINGS  CLOUDY    56  54  93 SE6       30.35R FOG
A. F. ACADEMY  CLOUDY    55  55 100 SE1       30.35S
ELLICOTT       MOCLDY    56  55  97 SW6       30.33R
FALCON         CLOUDY    54  53  98 S6        30.37S FOG
FORT CARSON    CLOUDY    56  56 100 S8        30.32S
LIMON          CLOUDY    56  55  97 CALM      30.30R
MONUMENT HILL  CLOUDY    52  50  93 S9        30.35S
TRINIDAD       FOG       54  54 100 CALM      30.32R VSB 1/4
$$

COZ042>045-048>051-090-091-311300-
...NORTHEAST COLORADO...

CITY           SKY/WX    TMP DP  RH WIND       PRES   REMARKS
GREELEY ARPT   NOT AVBL
AKRON          MOCLDY    59  56  89 SW7       30.26R
BURLINGTON     PTCLDY    53  51  93 SW7       30.25S
WRAY             N/A    N/A N/A N/A CALM      30.21S
STERLING       MOCLDY    61  61 100 CALM      30.23R FOG
HOLYOKE        PTCLDY    59  55  88 W5        30.23R
FORT MORGAN    MOCLDY    58  57  95 CALM      30.27R
$$

COZ086-089-092>099-311300-
...SOUTHEAST COLORADO...

CITY           SKY/WX    TMP DP  RH WIND       PRES   REMARKS
PUEBLO         CLOUDY    60  59  96 SE6       30.27S
LA JUNTA       PTCLDY    59  58  96 SW5       30.26S
LAMAR          CLOUDY    59  57  93 SW5       30.23R
SPRINGFIELD      N/A     53  52  96 W3        30.27S
$$


USA.gov is the U.S. government's official web portal to all federal, state and local government web resources and services.